Retour au catalogue

DROR-1

ActifCommunicationsGEO
NORAD 64784·PAYLOAD·🇮🇱 Israel

Lancé Jul 13, 2025 depuis Cape Canaveral Space Force Station

Loading…

TLE

FraisSource: Space-Track

Époque: Sep 14, 2026, 13:46 UTC

1 64784U 25148A   26257.57423434 -.00000042  00000-0  00000-0 0  9990
2 64784   0.0159 213.0628 0000341 353.7593 349.4134  1.00272215  4193

Suivez DROR-1 en temps réel avec AllMySat

Download on the App Store